Location: Ch�risy
(50.2331°N, 2.9131°E)
Time: 20:15:23
(UTC+00:00)

Cosmos 1486 Rocket - Pass Details

Date: 17 January 2021
Orbit: 759 x 783 km, 74.1° (Epoch: 27 February)

Event Time Altitude Azimuth Distance (km) Brightness Sun altitude
Rises 17:34:19 0° 209° (SSW) 3,229 8.0 -11.9°
Reaches altitude 10° 17:36:42 10° 211° (SSW) 2,303 7.2 -12.3°
Maximum altitude 17:41:54 71° 296° (WNW) 809 4.3 -13.1°
Drops below altitude 10° 17:47:08 10° 21° (NNE) 2,306 6.1 -13.9°
Enters shadow 17:48:10 - 22° (NNE) 2,704 6.5 -14.1°
